TimeCDT,TemperatureF,Dew PointF,Humidity,Sea Level PressureIn,VisibilityMPH,Wind Direction,Wind SpeedMPH,Gust SpeedMPH,PrecipitationIn,Events,Conditions,WindDirDegrees,DateUTC
12:06 AM,33.8,30.2,87,30.15,1.2,North,18.4,-,N/A,,Overcast,10,2013-04-03 05:06:00
12:25 AM,33.8,30.2,87,30.15,2.0,NNE,15.0,-,N/A,,Overcast,20,2013-04-03 05:25:00
12:53 AM,33.1,30.0,89,30.17,4.0,North,11.5,20.7,N/A,,Overcast,10,2013-04-03 05:53:00
1:01 AM,33.8,30.2,87,30.14,6.0,NNE,16.1,-,N/A,,Overcast,20,2013-04-03 06:01:00
1:53 AM,32.0,30.0,92,30.14,4.0,NE,15.0,-,N/A,,Overcast,40,2013-04-03 06:53:00
2:09 AM,32.0,30.2,93,30.11,10.0,NE,13.8,-,N/A,,Overcast,50,2013-04-03 07:09:00
2:25 AM,33.8,30.2,87,30.12,3.0,NNE,11.5,-,N/A,,Overcast,20,2013-04-03 07:25:00
2:53 AM,32.0,30.0,92,30.17,8.0,North,11.5,-,N/A,,Overcast,10,2013-04-03 07:53:00
3:13 AM,32.0,28.4,87,30.14,4.0,North,12.7,-,N/A,,Overcast,360,2013-04-03 08:13:00
3:26 AM,33.8,30.2,87,30.13,2.5,North,15.0,-,0.00,Rain,Light Freezing Rain,360,2013-04-03 08:26:00
3:32 AM,33.8,30.2,87,30.13,1.8,North,12.7,-,0.00,Rain,Light Freezing Rain,360,2013-04-03 08:32:00
3:50 AM,32.0,30.2,93,30.13,2.0,North,15.0,-,0.00,Rain,Light Freezing Rain,10,2013-04-03 08:50:00
3:53 AM,32.0,30.0,92,30.15,2.0,North,13.8,-,0.00,Rain,Light Freezing Rain,10,2013-04-03 08:53:00
4:12 AM,32.0,28.4,87,30.13,2.0,North,12.7,-,0.00,Rain,Light Freezing Rain,10,2013-04-03 09:12:00
4:53 AM,32.0,28.9,88,30.15,2.5,North,12.7,-,0.01,Rain,Light Freezing Rain,360,2013-04-03 09:53:00
5:01 AM,32.0,30.2,93,30.13,3.0,North,13.8,-,0.00,Rain,Light Freezing Rain,10,2013-04-03 10:01:00
5:48 AM,32.0,28.4,87,30.14,3.0,North,15.0,-,0.00,,Overcast,10,2013-04-03 10:48:00
5:53 AM,32.0,28.9,88,30.17,3.0,North,13.8,-,0.00,,Overcast,10,2013-04-03 10:53:00
6:53 AM,32.0,28.9,88,30.17,4.0,North,12.7,-,N/A,,Overcast,360,2013-04-03 11:53:00
7:53 AM,32.0,28.9,88,30.18,3.0,NNE,12.7,-,N/A,,Overcast,20,2013-04-03 12:53:00
8:53 AM,33.1,28.9,85,30.20,5.0,North,17.3,-,N/A,,Overcast,360,2013-04-03 13:53:00
9:53 AM,33.1,30.0,89,30.21,1.0,North,15.0,-,N/A,,Overcast,10,2013-04-03 14:53:00
10:07 AM,33.8,30.2,87,30.18,3.0,NNE,16.1,-,N/A,,Overcast,20,2013-04-03 15:07:00
10:34 AM,33.8,30.2,87,30.18,1.0,NNE,15.0,-,N/A,,Overcast,20,2013-04-03 15:34:00
10:53 AM,33.1,30.0,89,30.23,1.5,North,16.1,-,N/A,,Overcast,10,2013-04-03 15:53:00
11:01 AM,33.8,30.2,87,30.20,2.5,NNE,15.0,-,N/A,,Overcast,20,2013-04-03 16:01:00
11:53 AM,34.0,30.0,85,30.23,2.0,NNE,15.0,-,N/A,,Overcast,20,2013-04-03 16:53:00
12:19 PM,33.8,30.2,87,30.19,4.0,North,16.1,24.2,N/A,,Overcast,10,2013-04-03 17:19:00
12:53 PM,34.0,30.0,85,30.23,4.0,NNE,13.8,-,N/A,,Overcast,20,2013-04-03 17:53:00
1:04 PM,33.8,30.2,87,30.20,3.0,North,15.0,-,0.00,Snow,Snow,10,2013-04-03 18:04:00
1:53 PM,36.0,32.0,86,30.22,7.0,North,15.0,-,0.00,,Overcast,10,2013-04-03 18:53:00
2:53 PM,37.0,32.0,82,30.19,7.0,North,13.8,-,N/A,,Overcast,10,2013-04-03 19:53:00
3:26 PM,37.4,30.2,75,30.17,9.0,North,15.0,-,N/A,,Overcast,10,2013-04-03 20:26:00
3:53 PM,39.0,32.0,76,30.18,10.0,North,12.7,-,N/A,,Overcast,360,2013-04-03 20:53:00
4:53 PM,39.0,30.9,73,30.17,10.0,North,10.4,-,N/A,,Overcast,10,2013-04-03 21:53:00
5:53 PM,39.0,30.9,73,30.17,10.0,North,12.7,-,N/A,,Overcast,10,2013-04-03 22:53:00
6:53 PM,37.9,30.9,76,30.17,10.0,North,10.4,-,N/A,,Overcast,10,2013-04-03 23:53:00
7:53 PM,37.9,30.0,73,30.19,10.0,North,10.4,-,N/A,,Overcast,350,2013-04-04 00:53:00
8:53 PM,37.0,30.0,76,30.20,10.0,North,9.2,-,N/A,,Overcast,360,2013-04-04 01:53:00
9:53 PM,37.0,30.9,79,30.21,10.0,North,8.1,-,N/A,,Overcast,360,2013-04-04 02:53:00
10:53 PM,37.0,30.9,79,30.23,10.0,North,8.1,-,N/A,,Overcast,10,2013-04-04 03:53:00
11:53 PM,37.0,30.0,76,30.22,10.0,North,8.1,-,N/A,,Overcast,350,2013-04-04 04:53:00